STARLINK-32285, 60355

Orbit data source: Space-Track

STARLINK-32285, 60355 is a payload satellite owned by SpaceX/Seattle (US) in LEO that was launched on Sun, 04 Aug 2024 UTC via an FALCON 9 launch vehicle from the Air Force Western Test Range (AFWTR). Payload-class satellites include a variety of spacecraft equipped with specific instruments for various scientific and technological missions. These include communications satellites like Starlink; space stations such as the ISS; scientific satellites like the Hubble; Earth observation satellites from companies like Planet Labs, Umbra, and HawkEye 360; GPS; miniature CubeSats for education and research; and military/defense satellites.

Loading next visibility...
Identifier
60355, 2024-138A
Orbit
LEO
Country
Flag of USUS
Related business
Manufacturer
SpaceX/Seattle
Mission
Operational Commercial Communications
Bus & Motor
STARLINK V2M, Unknown motor
Mass
730 kg wet, ~700 kg dry
Launch date (UTC)
2024-08-04 (1 year ago)
Launch vehicle
FALCON 9
Launch site
Air Force Western Test Range (AFWTR)
Object type
Payload
Rocket body
Debris
Shape & HBR
Box + 2 Pan, 14.5 m
Radar Cross Section
33.884 m², Large (>1 m²)

Expand to show TLE details & history
Last TLE update: 7 hours ago

TLE from 7 hours ago
0 STARLINK-32285
1 60355U 24138A   25258.58933636 -.00000227  00000-0  44631-5 0  9997
2 60355  53.1612  42.5959 0001212  86.9296 273.1843 15.30199281 63825
Epoch: 2025-09-15T14:08Z
TLE epoch observation values (Epoch: 2025-09-15T14:08:38.661Z)
Latitude
-0.00006°
Longitude
-164.35705°
Altitude
476.071 km
Speed
7.629 km/s
True Right ascension
02h 50m 23s
True Declination
0° 00' 00"
Sunlit
Object was in full shadow at epoch
Visualization orbit readout
Latitude
Unknown
Longitude
Unknown
Altitude
Unknown
Speed
Unknown
Apparent Right ascension
Unknown
Apparent Declination
Unknown
Sunlit
N/A
Visualization observer readout
Local Sidereal Time
13:55:52
Azimuth
Unknown
Elevation
Unknown
Doppler factor
Unknown
Orbital elements
Apogee altitude
476.304 km
Perigee altitude
474.643 km
Semi-major axis
6,853.61 km
Eccentricity
0.00012
Inclination
53.1612°
RAAN
42.5959°
Arg. of periapsis
86.9296°
True anomaly
273.17043°
Mean anomaly
273.1843°
Eccentric anomaly
273.17737°
Mean motion
3.82529 °/min
Orbital period
94.11 mins
BSTAR
0.0000044631
Loading maneuver chart data...
Computing Atmospheric mass density...
Loading historical data...
Loading historical data...
Loading historical data...
Loading historical data...
Loading historical data...
Loading historical data...
Loading historical data...

Documentation

Showing up to 5 results
|